Location: Bo?a Wola
(50.4192°N, 19.7966°E)
Time: 12:13:39
(UTC+00:00)

Cosmos 1934 Rocket - Pass Details

Date: 09 September 2024
Orbit: 938 x 997 km, 83.0° (Epoch: 08 October)

Event Time Altitude Azimuth Distance (km) Brightness Sun altitude
Rises 01:49:11 0° 353° (N) 3,677 7.4 -20.9°
Reaches altitude 10° 01:51:50 10° 0° (N) 2,735 6.8 -20.6°
Maximum altitude 01:57:49 44° 72° (ENE) 1,332 5.2 -19.8°
Drops below altitude 10° 02:03:49 10° 144° (SE) 2,751 6.4 -19.0°
Sets 02:06:29 0° 151° (SSE) 3,701 7.0 -18.7°
